Flag for Canada Weather past 2 weeks in Pond Inlet, Nunavut Territory, Canada

Now
-33 °F

Clear.


Feels Like: -48 °F
Forecast: -30 / -23 °F
Wind: 5 mph from South

Location: Pond Inlet

Current Time: Mar 2, 2015 at 7:46:58 PM

Latest Report: Mar 2, 2015 at 7:00 PM


Visibility: 9 mi

Pressure: 29.98 "Hg

Humidity: 66%

Dew point: -40 °F

Location of Pond InletLocation

Historic Weather in Pond Inlet — Graph

°F

Pond Inlet temperature yesterday

Maximum temperature yesterday: -24 °F (at 12:00 AM)
Minimum temperature yesterday: -33 °F (at 9:00 PM)
Average temperature yesterday: -26 °F

Past Weeks' High & Low Weather Summary

 TemperatureHumidityPressure
High-22 °F (Feb 28, 2:00 PM)75% (Feb 15, 7:00 PM)30.52 "Hg (Feb 15, 7:00 PM)
Low-38 °F (Feb 17, 6:00 AM)59% (Feb 16, 7:00 PM)29.49 "Hg (Feb 25, 1:00 AM)
Average-30 °F68%29.88 "Hg
* Reported Feb 15 6:00 PM — Mar 2 6:00 PM, Pond Inlet, Weather by CustomWeather, © 2015

Note: Actual official high and low records may vary slightly from our data, if they occured in-between our weather recording intervals... More about our weather records

Advertising

Pond Inlet weather history for previous 24 hours

 ConditionsComfort  
Time TempWeatherWind HumidityBarometerVisibility
6:00 PM
Mon, Mar 2
-35 °FPassing clouds.5 mph66%29.97 "Hg20 mi
5:00 PM-33 °FClear.2 mph66%29.96 "Hg8 mi
4:00 PM-29 °FPassing clouds.No wind67%29.96 "Hg20 mi
3:00 PM-27 °FPassing clouds.No wind67%29.95 "Hg20 mi
2:00 PM-29 °FPassing clouds.2 mph67%29.94 "Hg20 mi
1:00 PM-27 °FPassing clouds.No wind67%29.93 "Hg20 mi
12:00 PM-29 °FPassing clouds.No wind74%29.92 "Hg20 mi
11:00 AM-31 °FPassing clouds.2 mph67%29.92 "Hg20 mi
10:00 AM-29 °FSunny.3 mph74%29.91 "Hg9 mi
9:00 AM-31 °FSunny.6 mph67%29.90 "Hg9 mi
8:00 AM-33 °FSunny.3 mph66%29.90 "Hg9 mi
7:00 AM-33 °FSunny.5 mph66%29.90 "Hg9 mi
6:00 AM-33 °FSunny.3 mph66%29.89 "Hg9 mi
5:00 AM-31 °FClear.3 mph67%29.88 "Hg9 mi
4:00 AM-31 °FClear.5 mph67%29.87 "Hg9 mi
3:00 AM-31 °FClear.5 mph67%29.87 "Hg9 mi
2:00 AM-33 °FClear.5 mph66%29.86 "Hg9 mi
1:00 AM-31 °FClear.3 mph67%29.85 "Hg9 mi
12:00 AM-29 °FClear.2 mph67%29.85 "Hg9 mi
11:00 PM
Sun, Mar 1
-27 °FClear.No wind67%29.85 "Hg9 mi
10:00 PM-31 °FClear.3 mph67%29.85 "Hg9 mi
9:00 PM-33 °FClear.3 mph66%29.85 "Hg9 mi
8:00 PM-29 °FClear.No wind67%29.84 "Hg9 mi
7:00 PM-31 °FClear.3 mph67%29.83 "Hg9 mi
Weather by CustomWeather, © 2015

See weather overviewHow to use our weather pages